Location: McFarlands Corners
(41.4117°N, 81.3382°W)
Time: 16:47:47
(UTC+00:00)

Transit 2A - Pass Details

Date: 17 February 2026
Orbit: 590 x 954 km, 66.7° (Epoch: 7 March)

Event Time Altitude Azimuth Distance (km) Brightness Sun altitude
Rises 02:25:11 0° 334° (NNW) 3,579 10.0 -38.6°
Reaches altitude 10° 02:27:57 10° 341° (NNW) 2,596 9.1 -39.0°
Enters shadow 02:29:12 16° 346° (NNW) 2,172 8.6 -39.3°
